STARLINK-34050, 64331

Orbit data source: Space-Track

STARLINK-34050, 64331 is a payload satellite owned by SpaceX/Seattle (US) in LEO that was launched on Tue, 10 Jun 2025 UTC via an FALCON 9 launch vehicle from the Air Force Eastern Test Range (AFETR). Payload-class satellites include a variety of spacecraft equipped with specific instruments for various scientific and technological missions. These include communications satellites like Starlink; space stations such as the ISS; scientific satellites like the Hubble; Earth observation satellites from companies like Planet Labs, Umbra, and HawkEye 360; GPS; miniature CubeSats for education and research; and military/defense satellites.

Loading next visibility...
Identifier
64331, 2025-124Q
Orbit
LEO
Country
Flag of USUS
Related business
Manufacturer
SpaceX/Seattle
Mission
Operational spacecraft
Bus & Motor
STARLINK V2MO, Unknown motor
Mass
575 kg wet, ~530 kg dry
Launch date (UTC)
2025-06-10 (3 months ago)
Launch vehicle
FALCON 9
Launch site
Air Force Eastern Test Range (AFETR)
Object type
Payload
Rocket body
Debris
Shape & HBR
Unknown
Radar Cross Section
Large (>1 m²)

Expand to show TLE details & history
Last TLE update: 6 hours ago

TLE from 6 hours ago
0 STARLINK-34050
1 64331U 25124Q   25242.91668981  .00010984  00000-0  40835-3 0  9999
2 64331  43.0016 119.1366 0001728 274.9179  88.6594 15.27558106  5912
Epoch: 2025-08-30T22:00Z
TLE epoch observation values (Epoch: 2025-08-30T22:00:01.999Z)
Latitude
2.40882°
Longitude
172.35526°
Altitude
482.582 km
Speed
7.626 km/s
True Right ascension
08h 06m 49s
True Declination
2° 23' 38"
Sunlit
Object was in daylight at epoch
Visualization orbit readout
Latitude
Unknown
Longitude
Unknown
Altitude
Unknown
Speed
Unknown
Apparent Right ascension
Unknown
Apparent Declination
Unknown
Sunlit
N/A
Visualization observer readout
Local Sidereal Time
19:10:12
Azimuth
Unknown
Elevation
Unknown
Doppler factor
Unknown
Orbital elements
Apogee altitude
486.246 km
Perigee altitude
483.874 km
Semi-major axis
6,863.197 km
Eccentricity
0.00017
Inclination
43.0016°
RAAN
119.1366°
Arg. of periapsis
274.9179°
True anomaly
88.6792°
Mean anomaly
88.6594°
Eccentric anomaly
88.6693°
Mean motion
3.81728 °/min
Orbital period
94.31 mins
BSTAR
0.00040835
Loading maneuver chart data...
Computing Atmospheric mass density...
Loading historical data...
Loading historical data...
Loading historical data...
Loading historical data...
Loading historical data...
Loading historical data...
Loading historical data...

Documentation

Showing up to 5 results
|